[[{"header":{"parameterUnit":"m.s-1","parameterCategory":1,"la1":30.2991,"la2":30.254,"lo1":-89.0895,"lo2":-89.0444,"dy":0.0017,"dx":0.0017,"nx":28,"ny":28,"refTime":"2023-07-27T09:00:00:Z","depth":0,"parameterNumber":2,"parameterNumberName":"U-component_of_WINDS"},"data":[0,0,0,0,0,0,0,0,0,0,0,0,0,0,0,0,0,0,0,0,0,0,0,0,0,0,0,0,0,0,0,0,0,0,0,0,0,0,0,0,0,0,0,0,0,0,0,0,0,0,0,0,0,0,0,0,0,0,0.166,0.166,0,0.17,0.17,0.1701,0.1719,0.1719,0.1719,0.1719,0.1759,0.176,0.1761,0,0,0,0,0,0,0,0,0,0,0,0,0,0.1597,0.1598,0.166,0.166,0.1661,0.17,0.17,0.1701,0.1719,0.1719,0.1719,0.1719,0.1759,0.176,0.1761,0,0,0,0,0,0,0,0,0,0,0,0,0,0.1629,0.1598,0.166,0.1674,0.1676,0.17,0.17,0.1701,0.1719,0.1719,0.1719,0.1719,0.1758,0.176,0.1761,0.1773,0,0,0.1766,0.1767,0,0,0,0,0,0,0,0,0.1627,0.1631,0.1672,0.1673,0.1675,0.1704,0.1693,0.1725,0.1719,0.1703,0.1719,0.1719,0.1741,0.1744,0.1751,0.1775,0.1777,0.1767,0.1768,0.1768,0.1769,0,0,0,0,0,0,0,0.1625,0.163,0.1676,0.1672,0.1675,0.1678,0.1683,0.1699,0.1721,0.1704,0.1705,0.171,0.1742,0.175,0.1753,0.1777,0.1767,0.1768,0.1769,0.177,0.1811,0.1811,0,0,0,0,0,0,0.1621,0.1628,0.1674,0.1677,0.1651,0.168,0.1685,0.1695,0.1721,0.1725,0.171,0.1711,0.1747,0.1751,0.1754,0.1769,0.1768,0.177,0.1771,0.1811,0.1811,0.1811,0,0,0,0,0,0,0.1619,0.1625,0.1673,0.1653,0.1659,0.1681,0.1692,0.1696,0.1704,0.1726,0.173,0.1714,0.1747,0.1752,0.1768,0.177,0.1771,0.1772,0.1811,0.1811,0.1811,0.1799,0,0,0,0,0,0,0.1617,0.1624,0.1629,0.1653,0.166,0.1686,0.1693,0.1697,0.1707,0.1708,0.1731,0.1735,0.1747,0.1765,0.177,0.1773,0.1773,0.1811,0.1811,0.1811,0.1799,0.1798,0.1798,0,0,0,0,0,0.1615,0.1624,0.1629,0.1635,0.1667,0.1687,0.1691,0.1706,0.1707,0.1712,0.1726,0.1734,0.1769,0.1767,0.1772,0.1775,0.181,0.1811,0.1811,0.1799,0.1798,0.1798,0,0,0,0,0,0,0.16,0.1627,0.1634,0.1651,0.1666,0.169,0.1697,0.1704,0.172,0.172,0.1737,0.1742,0.1757,0.1768,0.1764,0.1787,0.1791,0.1792,0.178,0.1779,0.1779,0.1776,0.1775,0,0,0,0,0,0.1599,0.1613,0.1636,0.1649,0.1656,0.1675,0.1684,0.1694,0.171,0.1717,0.1732,0.1748,0.1762,0.1771,0.1786,0.18,0.1805,0.1805,0.1805,0.1804,0.1805,0.1813,0.1813,0.1812,0.1812,0.1812,0,0,0.1596,0.1613,0.1621,0.1646,0.1659,0.1673,0.168,0.1695,0.1704,0.1719,0.1735,0.1747,0.1765,0.178,0.1788,0.179,0.1806,0.1804,0.1804,0.1805,0.1813,0.1813,0.1813,0.1812,0.1812,0.1812,0,0,0.1599,0.1613,0.1625,0.1638,0.1658,0.167,0.1673,0.1695,0.1703,0.1719,0.173,0.1742,0.1767,0.1779,0.1789,0.1794,0.1802,0.1799,0.1796,0.1803,0.1803,0.1803,0.1805,0.1805,0.1799,0.1799,0.1799,0,0.1593,0.1615,0.163,0.1643,0.1654,0.1667,0.1679,0.1691,0.1714,0.1721,0.1723,0.1753,0.1767,0.1785,0.1786,0.1793,0.1796,0.1796,0.1802,0.1802,0.1803,0.1804,0.1805,0.1799,0.1799,0.1799,0.1799,0,0.1606,0.1621,0.1628,0.165,0.1661,0.1674,0.169,0.1699,0.1708,0.172,0.1736,0.1752,0.177,0.1775,0.1783,0.1793,0.1794,0.1799,0.1802,0.1802,0.1804,0.1804,0.1798,0.1798,0.1798,0.1798,0,0,0.1601,0.1631,0.1634,0.1643,0.1666,0.1677,0.1689,0.1707,0.1714,0.1729,0.174,0.176,0.1764,0.1775,0.1785,0.1791,0.1793,0.1795,0.1796,0.1794,0.1805,0.1801,0.1802,0.1799,0.1799,0.1799,0.1803,0,0.1606,0.163,0.1644,0.1662,0.1674,0.1687,0.1698,0.1712,0.1723,0.1735,0.1747,0.1761,0.1766,0.1772,0.1779,0.1792,0.1796,0.1792,0.1808,0.1808,0.1803,0.1803,0.1799,0.1802,0.1804,0.1804,0.1804,0,0.1616,0.1631,0.165,0.167,0.1676,0.1685,0.1702,0.1713,0.1729,0.1737,0.1748,0.1758,0.1771,0.1773,0.179,0.1787,0.1795,0.1802,0.1802,0.1804,0.1806,0.1805,0.1804,0.1804,0.1806,0.1806,0.1805,0,0.161,0.1635,0.1649,0.1657,0.1681,0.1687,0.1697,0.1713,0.1722,0.1737,0.1743,0.1758,0.1766,0.1778,0.1791,0.1791,0.1807,0.181,0.1813,0.1813,0.1816,0.1816,0.1816,0.1821,0.1821,0.1821,0.1821,0,0.1614,0.1625,0.1647,0.1655,0.1668,0.1683,0.1694,0.1705,0.1719,0.173,0.1741,0.1751,0.1768,0.1779,0.179,0.1802,0.1806,0.1812,0.1815,0.1811,0.181,0.1816,0.1816,0.1821,0.1821,0.1821,0.1821,0,0.161,0.1625,0.1641,0.1662,0.1667,0.1675,0.1693,0.1701,0.1712,0.1726,0.1729,0.1747,0.1761,0.1775,0.1794,0.1801,0.1813,0.1817,0.1808,0.1809,0.1811,0.1811,0.1816,0.1817,0.182,0.182,0.182,0,0.1612,0.162,0.1642,0.165,0.166,0.1672,0.1682,0.1697,0.1706,0.1724,0.173,0.1745,0.1758,0.1779,0.1793,0.1808,0.1812,0.1812,0.1814,0.181,0.1811,0.1811,0.1811,0.1812,0.1812,0.1812,0.1812,0,0.1613,0.162,0.1633,0.1649,0.1659,0.1672,0.1686,0.1691,0.1709,0.1718,0.1732,0.1742,0.1761,0.1776,0.1791,0.1801,0.1809,0.1811,0.1812,0.1809,0.1803,0.1806,0.1806,0.1811,0.1811,0.1811,0.1811,0.1811,0.1612,0.162,0.1636,0.165,0.1661,0.1673,0.1682,0.1694,0.1707,0.1723,0.1731,0.1745,0.176,0.1782,0.1792,0.1803,0.1805,0.1807,0.1807,0.1808,0.1806,0.1801,0.1805,0.1805,0.1806,0.1806,0.1806,0,0.1614,0.1624,0.1637,0.1655,0.1666,0.1672,0.1687,0.1696,0.1708,0.1721,0.1733,0.1749,0.1763,0.1778,0.1792,0.1798,0.1802,0.1801,0.1801,0.1803,0.1804,0.1801,0.1798,0.1798,0.1798,0.1798,0.1798,0.1798,0.1616,0.1629,0.1638,0.1657,0.1667,0.1682,0.1689,0.17,0.1711,0.1728,0.1739,0.1749,0.1762,0.1778,0.179,0.1794,0.1799,0.1797,0.1802,0.1803,0.1803,0.1804,0.1801,0.1798,0.1798,0.18,0.18,0.18]},{"header":{"parameterUnit":"m.s-1","parameterCategory":1,"la1":30.2991,"la2":30.254,"lo1":-89.0895,"lo2":-89.0444,"dy":0.0017,"dx":0.0017,"nx":28,"ny":28,"refTime":"2023-07-27T09:00:00:Z","depth":0,"parameterNumber":3,"parameterNumberName":"V-component_of_WINDS"},"data":[0,0,0,0,0,0,0,0,0,0,0,0,0,0,0,0,0,0,0,0,0,0,0,0,0,0,0,0,0,0,0,0,0,0,0,0,0,0,0,0,0,0,0,0,0,0,0,0,0,0,0,0,0,0,0,0,0,0,4.5605,4.5605,0,4.5598,4.5597,4.5597,4.5525,4.5524,4.5522,4.552,4.5513,4.5514,4.5516,0,0,0,0,0,0,0,0,0,0,0,0,0,4.5557,4.5558,4.5605,4.5605,4.5605,4.5598,4.5597,4.5597,4.5526,4.5523,4.5521,4.5519,4.5512,4.5514,4.5516,0,0,0,0,0,0,0,0,0,0,0,0,0,4.5567,4.5559,4.5605,4.5568,4.5565,4.5598,4.5597,4.5597,4.5526,4.5523,4.5521,4.5518,4.5512,4.5514,4.5516,4.5584,0,0,4.5523,4.5524,0,0,0,0,0,0,0,0,4.5566,4.5568,4.5574,4.5571,4.5567,4.556,4.5578,4.5593,4.5527,4.5541,4.552,4.5517,4.5531,4.5531,4.5536,4.5583,4.5583,4.5523,4.5524,4.5525,4.5526,0,0,0,0,0,0,0,4.5566,4.5568,4.5602,4.5574,4.557,4.5552,4.555,4.558,4.5551,4.5539,4.5534,4.5534,4.5528,4.5534,4.5535,4.5583,4.5523,4.5525,4.5526,4.5527,4.5684,4.5687,0,0,0,0,0,0,4.557,4.5568,4.5602,4.5602,4.556,4.5555,4.5553,4.5565,4.555,4.5546,4.5537,4.5531,4.5531,4.5532,4.5534,4.5611,4.5525,4.5527,4.5529,4.5681,4.5685,4.5688,0,0,0,0,0,0,4.5569,4.5574,4.5603,4.5584,4.5586,4.5559,4.5572,4.5566,4.5571,4.5548,4.5543,4.5547,4.5529,4.5531,4.5571,4.561,4.5528,4.553,4.5678,4.5682,4.5686,4.5766,0,0,0,0,0,0,4.5568,4.5574,4.5599,4.5585,4.5587,4.564,4.5575,4.5568,4.5575,4.5568,4.5557,4.5553,4.5527,4.5569,4.5574,4.5611,4.5532,4.5674,4.568,4.5685,4.5759,4.5772,4.5783,0,0,0,0,0,4.5567,4.5623,4.5601,4.5606,4.5619,4.5643,4.5644,4.5613,4.5579,4.5604,4.5589,4.5553,4.5605,4.5573,4.5578,4.5617,4.5672,4.5678,4.5684,4.5754,4.5769,4.5783,0,0,0,0,0,0,4.5643,4.562,4.5596,4.5649,4.5648,4.563,4.5661,4.5631,4.564,4.5633,4.5595,4.5593,4.5639,4.5632,4.5597,4.5681,4.5632,4.564,4.5683,4.5698,4.5709,4.5709,4.5534,0,0,0,0,0,4.5666,4.5687,4.5666,4.5715,4.5716,4.5689,4.5698,4.5675,4.5672,4.5672,4.566,4.5659,4.5675,4.5686,4.57,4.5759,4.5754,4.5788,4.58,4.5809,4.5816,4.5845,4.5859,4.5709,4.5709,4.5708,0,0,4.5713,4.5703,4.5719,4.573,4.5726,4.5749,4.5689,4.5716,4.5732,4.5676,4.5712,4.5704,4.5701,4.575,4.5771,4.5746,4.5857,4.5818,4.5826,4.5827,4.5853,4.5867,4.588,4.5713,4.5712,4.5711,0,0,4.5811,4.5806,4.5845,4.5843,4.5839,4.582,4.583,4.5817,4.5808,4.5845,4.5803,4.5822,4.5851,4.5849,4.5853,4.5949,4.5916,4.5955,4.6016,4.6044,4.6056,4.6066,4.6099,4.6111,4.5962,4.5962,4.5963,0,4.587,4.5902,4.5869,4.5898,4.5903,4.5854,4.5892,4.5892,4.5893,4.5897,4.5869,4.5903,4.5898,4.5945,4.5969,4.5974,4.5983,4.5955,4.6057,4.6067,4.6076,4.6107,4.6119,4.5967,4.5966,4.5966,4.5966,0,4.5974,4.5998,4.603,4.603,4.6039,4.6074,4.6045,4.6058,4.6034,4.6019,4.6056,4.6048,4.6058,4.6068,4.6045,4.6112,4.6096,4.6064,4.6013,4.6095,4.6123,4.6135,4.5974,4.5972,4.5971,4.5969,0,0,4.6119,4.61,4.6113,4.6112,4.6103,4.612,4.6152,4.6161,4.6172,4.6175,4.6199,4.6225,4.6194,4.6198,4.6175,4.62,4.6275,4.6164,4.6163,4.6183,4.6346,4.6369,4.6384,4.6254,4.6256,4.6258,4.6346,0,4.6211,4.6262,4.6233,4.6289,4.6309,4.6262,4.629,4.6287,4.6274,4.6289,4.6274,4.6292,4.6251,4.6253,4.6276,4.6261,4.6307,4.6255,4.6275,4.6276,4.6275,4.6399,4.6423,4.6507,4.6357,4.6359,4.636,0,4.6324,4.6331,4.6388,4.6374,4.6382,4.6407,4.6412,4.6428,4.6424,4.6412,4.6417,4.6387,4.6416,4.6368,4.6408,4.6373,4.638,4.6374,4.6376,4.6375,4.6322,4.6399,4.6533,4.6545,4.6377,4.6376,4.6375,0,4.6421,4.6444,4.6481,4.6482,4.6467,4.6486,4.6481,4.6474,4.6482,4.6487,4.6491,4.6501,4.6505,4.6513,4.6487,4.6455,4.653,4.648,4.652,4.652,4.6536,4.6535,4.6671,4.6544,4.6544,4.6544,4.6544,0,4.6525,4.6562,4.6524,4.6546,4.6585,4.6552,4.6592,4.6582,4.6577,4.6596,4.6557,4.6577,4.6542,4.6557,4.6537,4.6572,4.6575,4.6566,4.656,4.6568,4.6569,4.657,4.6563,4.6547,4.6546,4.6546,4.6545,0,4.6639,4.6615,4.6652,4.6635,4.6631,4.6661,4.6646,4.6666,4.6651,4.6676,4.668,4.6655,4.6671,4.6646,4.666,4.6647,4.6694,4.668,4.6695,4.669,4.6731,4.6727,4.6871,4.6887,4.6753,4.6754,4.6755,0,4.6706,4.6733,4.6718,4.6728,4.6725,4.6742,4.6749,4.6718,4.6726,4.6724,4.6744,4.6757,4.6765,4.6794,4.6777,4.6787,4.6772,4.6822,4.6773,4.678,4.677,4.6768,4.677,4.6831,4.6833,4.6834,4.6835,0,4.6827,4.6813,4.6824,4.6832,4.6841,4.6845,4.6847,4.6857,4.6824,4.6836,4.6852,4.6858,4.6872,4.6885,4.6891,4.6886,4.6855,4.6851,4.686,4.6868,4.6875,4.687,4.672,4.6847,4.6846,4.6845,4.6845,4.6844,4.6917,4.6938,4.6931,4.6945,4.6942,4.6944,4.6962,4.6948,4.696,4.6968,4.6949,4.697,4.6965,4.6969,4.6968,4.6983,4.6961,4.6975,4.6978,4.6982,4.6987,4.6874,4.6984,4.6984,4.6983,4.6983,4.6983,0,4.7034,4.7027,4.704,4.7042,4.7053,4.7024,4.7023,4.7034,4.7052,4.705,4.7059,4.7077,4.7089,4.7074,4.7083,4.7098,4.7084,4.7102,4.7099,4.7098,4.7007,4.6997,4.7113,4.7113,4.7113,4.7113,4.7113,4.7113,4.7096,4.7129,4.7115,4.7146,4.7139,4.7158,4.716,4.7162,4.7159,4.7181,4.7191,4.718,4.7173,4.7181,4.7191,4.7186,4.7191,4.7213,4.7203,4.7118,4.7105,4.7093,4.7083,4.7215,4.7215,4.7292,4.7293,4.7293]}]]